Temp_Advection
nan nan nan nan nan nan nan nan nan nan nan nan nan nan nan nan nan nan nan nan nan nan nan nan nan nan nan nan nan nan nan nan nan nan nan nan nan nan nan nan nan nan nan nan nan nan nan nan nan nan nan nan
nan 0 0 0 0 0 -0 -0 -0 -0 -0 -0 -0 -0 0 0 0 0 -0 -0 -0 -0 -0 -0 -0 -0 -0 -0 -0 -0 -0 -0 -0 -0 -1 -1 -0 -0 -0 0 0 0 -0 -0 -1 -1 -1 -1 -1 -1 -1 nan
nan 0 0 0 0 -0 0 0 -0 -0 -0 -0 -0 -0 0 0 0 0 0 0 0 -0 -0 -0 -0 -0 -0 -0 -0 -0 -0 -0 -0 -0 -0 -1 -1 -1 -1 0 0 0 -0 -0 -0 -1 -1 -1 -1 -1 -1 nan
nan -0 -0 0 -0 -0 -0 -0 0 -0 -0 -0 -0 -0 -0 -0 0 -0 -0 0 0 0 -0 -0 -0 -0 -0 -1 -0 -0 -0 -0 -0 -0 -0 -0 -0 -1 -1 -1 0 0 0 0 -0 -1 -1 -1 -1 -1 -1 nan
nan -0 -0 -0 -0 -0 -0 -0 -0 -0 -0 -0 -0 -0 -0 -0 -0 -0 -0 -0 -0 0 -0 -0 -0 -0 -0 -0 -0 -0 -0 -0 -0 -0 -0 -0 -0 -0 -1 -1 -0 0 0 0 0 -0 -0 -1 -1 -1 -1 nan
nan -0 -0 -0 -0 -0 -0 -0 -0 -0 -0 -0 -0 -0 -1 -1 -0 -0 -0 -0 -0 -0 -0 -0 -0 -0 -0 -0 -0 -0 -0 -0 -0 -0 -0 -0 -0 -0 -1 -1 -1 -0 -0 0 0 0 -0 -0 -0 -1 -1 nan
nan -0 -0 -0 -0 -0 -0 -0 -0 -0 -0 -1 -1 -1 -1 -1 -1 -1 -1 -1 -0 -0 -0 -0 -0 -0 -0 -0 -0 -0 -0 -0 -0 -0 -0 -0 -0 -0 -0 -1 -1 -1 -0 -0 -0 0 -0 -0 -0 -0 -0 nan
nan -0 -0 -0 -0 -0 -0 -0 -0 -0 -0 -0 -0 -1 -1 -1 -1 -1 -1 -1 -1 -1 -1 -1 -0 -0 -0 -0 -0 -0 -0 -0 -0 -0 -0 -0 -0 -0 -0 -0 -0 -1 -1 -0 -0 -0 -0 -0 -0 -0 -0 nan
nan -0 -0 -0 -0 -0 -0 -0 -0 -0 -0 -0 -0 -0 -1 -1 -1 -1 -1 -1 -1 -0 -1 -1 -0 -1 -1 -0 -0 -0 -0 -0 -0 -0 -0 -0 -0 -0 -0 -0 -0 -0 -0 -0 -0 -0 -0 -0 -0 -0 -0 nan
nan -0 -0 -0 -0 -0 -0 -0 -0 -0 -0 -0 -0 -0 -0 -0 -1 -1 -1 -1 -1 -1 -1 -1 -1 -1 -1 -1 -0 -0 -1 -0 -0 -0 -0 -0 -0 -0 -0 -0 -0 -0 -0 -1 -0 -0 -0 -0 -0 -0 -0 nan
nan -0 -0 -0 -0 -0 -0 -0 -0 -0 -0 -0 -0 -0 -0 -0 -0 -0 -0 -0 -1 -1 -0 -1 -1 -1 -1 -1 -0 -0 -1 -1 -0 -0 -1 -1 -0 -0 -0 -1 -1 -0 -0 -1 -1 -0 -0 -0 -0 -0 -0 nan
nan -0 -0 -0 -0 -0 -0 -0 -0 -0 -0 -0 -0 -0 -0 -0 -0 -0 -0 -0 -0 -0 -0 -1 -1 -1 -1 -1 -1 -0 -1 -1 -1 -0 -0 -1 -1 -0 -1 -1 -1 -1 -0 -0 -1 -1 -0 -0 -0 -0 -0 nan
nan -0 -0 -0 -0 -0 -0 -0 -0 -0 -0 -0 -0 0 -0 -0 -0 -0 -0 -0 -0 -0 -0 -0 -0 -1 -1 -1 -1 -1 -1 -1 -1 -1 -0 -0 -1 -1 -1 -1 -1 -1 -1 -0 -1 -1 -1 -0 -0 -0 -0 nan
nan 0 0 0 0 0 0 -0 -0 -0 -0 -0 -0 0 0 0 -0 -0 -0 -0 -0 -0 -0 -0 -0 -0 -0 -1 -1 -1 -1 -1 -1 -1 -1 -1 -1 -1 -1 -1 -1 -1 -1 -1 -0 -1 -1 -1 -1 -1 -1 nan
nan 0 0 0 0 0 0 0 0 0 0 0 0 0 0 0 0 0 0 -0 -0 -0 -0 -0 -0 0 -0 -0 -0 -0 -1 -1 -1 -1 -1 -1 -1 -1 -1 -1 -0 -1 -1 -1 -0 -1 -1 -1 -1 -1 -1 nan
nan 0 0 0 0 0 0 0 0 0 0 0 0 0 0 0 0 0 0 0 -0 -0 -0 -0 -0 0 0 0 0 0 -0 -1 -1 -1 -1 -1 -1 -1 -1 -1 -0 -1 -2 -1 -1 -1 -1 -1 -1 -1 -1 nan
nan 0 0 0 0 0 0 0 0 1 1 1 0 0 0 0 0 0 0 0 0 -0 -0 -0 -0 0 0 0 0 0 -0 -0 -0 -0 -0 -0 -1 -1 -1 -1 -1 -0 -1 -1 -1 -1 -1 -1 -1 -1 -1 nan
nan -0 -0 0 0 0 0 0 0 1 0 1 1 1 0 1 1 1 1 0 0 0 0 -0 -0 0 1 0 0 0 0 -0 -0 -0 -0 -0 -0 -1 -1 -1 -1 -1 -1 -1 -1 -1 -1 -1 -1 -1 -1 nan
nan -1 -1 -0 -0 -0 -0 0 0 0 0 0 1 0 1 1 1 1 1 1 1 0 0 0 0 0 1 1 0 0 0 -0 -0 -0 -0 -0 -0 -1 -1 -1 -1 -1 -1 -2 -1 -1 -1 -1 -1 -1 -1 nan
nan -1 -1 -1 -1 -1 -1 -1 -0 -0 0 0 0 0 0 0 0 0 0 1 0 0 0 0 -0 0 1 1 1 0 0 0 0 -0 -0 -0 -0 -1 -1 -1 -1 -1 -1 -2 -2 -1 -1 -1 -1 -1 -1 nan
nan -1 -0 -0 -0 -0 -1 -1 -1 -1 -1 -0 -0 -0 -0 -0 -0 -0 -0 0 0 -0 -0 -0 -1 -0 1 1 1 1 1 0 0 0 -0 -0 0 -0 -1 -1 -1 -1 -0 -1 -2 -2 -2 -1 -1 -1 -1 nan
nan -1 -1 -0 -0 -0 -0 -0 -0 -1 -1 -1 -1 -1 -1 -1 -1 -0 -0 -0 -0 -0 -0 -0 -1 -1 -0 0 1 1 1 1 1 1 0 -0 0 1 -0 -1 -1 -1 -0 -0 -1 -2 -2 -1 -1 -1 -1 nan
nan -2 -2 -1 -1 -1 -0 0 0 0 -0 -0 -0 -0 -1 -1 -1 -1 -1 -0 -0 -0 -0 -0 -1 -1 -1 -0 -0 0 0 1 1 1 1 0 -0 1 1 -0 -1 -0 -0 -0 -1 -2 -2 -1 -1 -1 -1 nan
nan -1 -1 -1 -1 -2 -1 -1 -0 0 0 0 -0 -0 -0 -1 -0 -1 -1 -1 -0 -0 -0 -0 -0 -1 -1 -1 -1 -1 -1 0 1 1 1 1 0 0 0 0 0 0 -0 -1 -1 -1 -1 -1 -1 -1 -1 nan
nan -1 -1 -1 -1 -1 -2 -2 -1 -1 -0 0 -0 -0 -0 -0 -0 -0 -0 -0 -0 -0 -0 -0 -0 -0 -0 -0 -0 -1 -1 -1 -0 0 1 1 1 0 -0 -0 1 1 0 -1 -2 -2 -2 -2 -1 -1 -1 nan
nan -1 -1 -1 -1 -1 -1 -1 -1 -1 -0 0 0 -0 -0 -0 -0 -0 -0 0 -0 -0 0 0 0 0 -0 0 0 -0 -0 -0 -1 -0 -0 0 1 1 0 -0 0 1 1 -0 -1 -2 -4 -4 -3 -1 -1 nan
nan -0 -0 -0 -0 -0 -0 -0 -0 -0 -0 1 1 1 -0 -0 -0 -0 -0 -0 -0 -0 -0 0 0 0 0 0 0 0 0 0 -0 -0 -0 -0 -0 0 1 -0 -0 1 1 1 0 -0 -2 -3 -5 -5 -3 nan
nan -0 -0 -0 0 0 -0 -0 -0 -0 -0 -0 1 1 1 0 -0 -0 -0 -0 -0 -0 -0 -0 -0 -0 -0 0 0 0 0 0 0 0 0 -0 -0 -0 0 -0 -0 0 1 1 1 1 0 -0 -2 -4 -3 nan
nan -0 -0 -0 -0 -1 -1 -1 -1 -1 -1 -1 -1 0 1 1 0 -0 -0 -0 -0 -0 -0 -0 -0 -0 -0 -0 -0 0 0 0 0 0 0 0 0 -0 0 0 -0 -0 -0 1 1 2 1 1 0 -1 -2 nan
nan -0 -1 -1 -1 -2 -2 -3 -2 -2 -2 -2 -2 -1 -0 0 0 0 -0 -0 -0 -0 -0 -0 -0 0 -0 -0 -0 -0 -0 0 0 0 0 0 0 0 0 0 0 -1 -0 0 1 1 1 1 1 -0 0 nan
nan nan nan nan nan nan nan nan nan nan nan nan nan nan nan nan nan nan nan nan nan nan nan nan nan nan nan nan nan nan nan nan nan nan nan nan nan nan nan nan nan nan nan nan nan nan nan nan nan nan nan nan
Wind_Speed
8 8 9 10 10 11 11 12 12 13 13 13 13 14 14 15 15 15 16 17 18 18 18 18 18 18 18 18 17 18 18 18 18 17 17 17 18 18 18 17 16 15 16 18 18 19 20 20 21 22 22 21
8 8 8 10 10 11 12 12 13 14 14 14 14 15 15 15 15 15 16 16 17 17 18 18 18 19 18 18 17 17 17 17 17 17 18 19 19 19 19 19 18 16 17 18 19 18 19 20 20 21 21 22
8 8 8 9 10 11 12 13 14 14 15 15 15 15 15 15 15 15 15 16 16 16 17 17 17 18 18 18 18 17 17 17 17 17 17 18 19 20 19 19 18 17 18 18 19 20 19 19 19 20 21 21
8 8 8 9 10 11 12 13 14 15 15 15 16 16 16 15 15 15 15 15 15 16 16 16 16 16 17 18 18 18 18 17 17 16 16 17 18 19 19 19 18 17 18 19 20 21 21 20 20 20 20 21
8 8 8 9 10 11 12 13 14 15 16 16 17 17 17 16 16 15 16 15 15 15 15 16 16 16 16 16 17 17 18 18 18 17 16 16 17 18 19 19 18 17 18 18 20 21 21 21 21 21 21 21
8 8 9 10 11 12 13 14 15 16 17 18 18 19 19 19 18 17 17 17 17 16 16 16 16 16 16 16 16 17 17 18 18 18 18 17 16 17 18 18 18 17 17 18 19 20 21 21 21 21 21 21
9 9 10 11 12 14 15 15 16 17 18 19 19 20 21 20 20 19 19 19 19 19 18 17 17 17 17 17 17 17 16 16 17 18 18 17 17 17 17 18 18 18 17 18 18 19 20 20 21 21 21 21
10 11 12 13 14 15 16 17 17 18 19 20 21 21 21 21 21 21 20 20 20 20 20 19 19 18 18 17 17 18 17 17 17 17 18 18 18 18 18 18 18 18 18 18 18 18 18 19 20 21 21 21
12 13 14 15 16 17 17 18 19 19 20 21 21 22 22 22 21 21 21 21 21 21 21 21 20 20 19 19 18 19 19 18 18 18 18 18 18 18 19 19 19 19 19 19 18 18 18 19 19 20 20 21
13 14 15 16 17 18 19 19 20 20 21 21 22 23 23 23 22 22 21 21 21 21 22 22 21 22 21 20 20 20 20 19 19 19 19 19 19 19 19 20 20 20 20 20 20 19 19 19 19 20 20 20
14 15 16 17 18 19 19 20 21 21 21 22 23 23 23 23 23 22 22 22 22 22 22 23 22 22 22 21 20 21 21 21 20 20 20 19 19 19 19 20 20 20 21 21 21 21 21 20 21 21 21 21
14 15 16 17 18 19 20 20 21 21 21 22 23 23 23 23 23 23 23 23 22 22 23 23 23 22 22 22 21 21 22 22 21 21 21 20 19 19 19 19 20 20 21 21 21 22 21 22 22 22 22 22
13 15 16 17 18 19 19 20 21 21 21 22 23 23 23 23 23 23 23 23 23 23 23 23 23 22 21 21 20 21 21 21 22 22 21 21 21 20 20 20 20 20 21 20 21 22 22 22 22 22 23 23
10 12 14 15 16 17 18 19 19 20 20 21 22 22 22 22 22 23 23 23 23 23 23 22 22 22 21 20 19 19 20 20 22 22 22 22 22 21 21 20 20 21 21 21 21 21 22 22 22 22 23 23
9 11 12 13 14 16 16 17 18 18 18 19 20 21 22 21 21 22 23 23 23 23 23 22 21 21 20 19 18 18 20 20 21 22 22 22 22 22 22 22 21 21 22 22 21 22 22 22 22 22 23 23
12 13 14 15 16 17 17 18 18 18 17 17 19 20 21 21 20 21 22 23 22 22 22 21 20 20 19 19 17 18 20 20 20 21 22 22 22 23 23 23 22 22 24 24 22 23 23 23 23 23 23 24
15 16 16 17 18 18 18 19 19 18 17 17 18 20 20 20 20 21 21 21 21 21 20 20 20 20 19 18 18 18 19 20 20 20 21 21 22 23 23 24 23 23 25 24 24 24 23 24 24 24 24 24
16 17 18 18 19 19 20 20 20 19 19 18 18 19 19 20 20 20 20 20 20 19 20 20 20 20 19 18 18 19 19 20 20 20 21 21 22 23 23 25 25 25 26 26 26 25 24 25 24 25 25 25
17 17 18 19 19 20 20 20 20 20 20 20 19 20 20 19 20 20 20 19 19 19 20 20 21 20 19 19 19 19 19 20 20 20 20 20 22 23 23 24 25 26 27 28 27 26 26 26 26 26 26 25
19 17 16 17 18 18 19 20 19 19 19 20 20 20 20 20 21 20 20 20 21 21 21 22 23 22 21 20 20 20 20 20 20 20 21 20 21 23 23 24 25 26 27 28 28 28 27 27 27 28 27 27
21 19 17 16 16 17 17 18 19 19 19 19 20 21 21 21 21 21 21 22 22 23 23 24 25 24 24 24 23 22 21 21 21 21 21 21 20 23 24 25 25 26 27 28 28 29 29 28 28 28 28 28
23 21 19 17 17 16 16 16 17 18 19 19 20 21 22 23 23 23 23 24 24 25 25 26 26 25 25 25 25 25 24 23 22 21 22 22 21 22 24 25 26 26 27 28 29 30 29 28 29 29 29 29
24 23 22 21 20 19 19 18 18 19 20 21 22 23 24 25 26 26 26 26 26 26 27 27 27 26 24 24 25 26 26 25 23 21 21 23 23 22 24 25 25 25 27 28 29 30 30 29 30 29 29 30
23 24 25 25 26 26 26 25 24 23 24 25 25 26 26 28 29 29 29 28 27 27 28 28 28 27 25 24 24 24 25 25 24 23 22 22 23 23 24 24 24 24 26 29 30 30 30 29 30 30 30 31
23 25 26 28 29 29 30 30 30 29 28 27 28 28 28 28 29 30 30 29 29 28 29 29 29 28 27 26 25 24 24 23 23 23 22 22 23 24 25 25 24 23 26 30 31 31 31 32 31 30 30 29
21 23 24 26 28 29 30 30 30 31 31 29 28 29 30 30 30 30 31 30 30 30 30 30 30 29 29 28 27 27 25 24 24 23 23 24 24 24 25 27 25 23 26 29 30 32 36 35 32 30 29 28
20 22 23 25 27 29 31 32 32 31 31 30 30 29 29 29 29 29 31 31 31 32 32 32 32 31 31 30 29 29 29 27 26 25 25 25 25 25 25 26 25 23 25 27 29 29 29 29 32 35 30 24
21 24 25 27 30 32 34 36 37 36 34 32 31 31 31 30 29 28 29 29 30 31 32 33 33 33 33 32 31 31 31 30 28 27 26 25 26 25 25 26 25 24 24 26 27 25 23 24 26 26 23 24
24 27 29 32 35 37 39 41 41 41 40 37 34 34 33 32 30 28 29 28 28 30 31 33 34 34 35 35 34 34 34 33 31 29 27 27 26 25 26 26 27 27 25 27 28 26 26 23 18 18 23 31
26 29 33 37 40 43 44 44 43 42 41 40 38 36 34 33 31 30 30 30 30 31 31 31 31 32 34 35 35 36 37 36 33 32 29 27 27 27 26 27 29 29 27 28 30 30 30 27 24 27 30 29
28 32 35 39 43 45 45 44 44 43 41 40 38 36 35 34 33 32 32 32 31 31 30 30 29 29 31 33 34 36 38 39 37 34 31 28 28 29 27 27 30 30 29 30 32 32 32 33 31 31 31 28
Wind_Direction
342 339 340 344 349 354 356 358 0 2 4 6 5 4 4 2 1 1 1 1 2 0 358 357 355 353 351 349 347 343 340 336 332 327 323 323 319 317 318 317 317 317 314 314 315 317 317 317 318 319 318 319
331 330 331 334 339 345 348 351 353 356 358 359 360 358 357 357 355 355 355 355 355 354 353 352 352 350 348 346 346 344 342 339 335 331 328 326 322 319 319 314 314 314 311 311 312 313 314 314 315 315 315 316
330 329 328 330 335 340 345 349 350 352 354 354 355 353 352 351 350 350 349 349 348 347 345 345 346 345 343 342 342 342 342 340 337 334 330 327 323 321 319 315 315 314 310 310 310 311 311 312 312 312 312 312
335 334 330 333 336 339 344 347 349 350 350 349 349 346 344 343 343 344 343 342 341 340 338 336 337 336 336 337 338 339 339 339 337 334 331 328 324 321 319 317 318 314 309 309 309 309 309 310 311 309 309 309
340 339 335 337 338 340 342 344 346 345 345 344 342 339 336 335 335 336 335 334 333 332 332 330 328 327 327 330 331 333 334 335 334 333 331 328 325 321 318 319 319 314 310 308 306 307 307 307 308 307 307 306
343 343 338 339 338 339 339 341 342 340 340 339 337 334 330 330 329 329 329 327 326 325 325 324 322 320 320 321 322 323 326 328 329 329 329 328 325 322 319 318 317 314 311 308 305 303 303 303 303 304 304 304
342 340 336 337 338 337 337 338 338 337 338 337 335 331 329 328 326 326 325 323 322 321 319 318 317 316 315 314 313 312 314 318 319 321 323 325 324 322 319 318 316 313 310 306 303 301 300 299 299 300 301 302
337 335 334 336 337 335 335 336 336 335 337 337 334 330 329 327 326 325 324 321 319 319 317 315 314 312 309 307 307 305 304 306 309 311 314 317 320 320 319 317 315 312 309 306 304 301 300 298 297 298 298 299
333 331 333 335 334 333 334 335 333 334 336 336 333 330 329 326 325 325 323 321 319 318 316 313 311 309 305 303 302 301 299 300 301 303 306 309 313 317 317 317 315 312 311 309 307 305 302 300 298 297 297 297
328 329 332 333 331 330 333 333 332 333 334 333 331 329 327 325 325 324 322 321 319 318 316 313 311 308 305 302 300 299 297 296 296 297 299 302 306 310 313 314 314 314 313 312 311 309 306 303 301 299 298 296
327 329 330 330 329 329 332 331 330 332 332 330 328 327 326 324 323 322 321 320 319 318 316 314 312 309 306 302 299 298 296 294 293 293 294 296 299 302 305 308 310 312 312 313 312 311 309 307 305 302 300 297
326 328 327 328 328 328 330 327 328 329 328 326 326 325 323 322 321 320 319 319 318 317 315 315 314 311 309 304 300 298 296 295 291 290 291 291 292 294 297 300 303 306 307 310 310 309 309 307 306 304 301 299
326 325 324 325 325 325 324 322 324 323 322 322 322 321 320 319 317 318 317 317 317 315 314 314 314 313 312 308 305 300 297 295 292 288 288 288 288 289 290 292 296 299 301 304 305 306 306 305 305 303 301 299
314 314 314 315 315 315 314 315 316 316 316 316 317 317 316 315 314 315 315 315 316 314 312 313 313 313 314 312 312 306 300 297 293 290 288 287 286 286 285 287 290 293 295 297 300 301 301 301 302 301 300 299
304 304 303 301 300 300 301 302 303 305 309 311 313 313 312 311 312 312 313 314 314 312 311 311 311 312 313 314 316 311 305 300 296 293 291 289 287 286 285 284 287 289 290 290 293 296 296 298 299 299 298 297
317 311 306 300 295 294 293 293 294 296 300 304 307 309 308 308 310 310 311 311 311 310 309 309 309 310 312 315 316 311 307 304 300 296 293 292 290 288 287 285 285 287 287 286 287 290 292 294 295 296 295 294
327 319 311 305 300 297 295 293 292 291 292 296 302 305 305 306 307 307 308 307 307 307 306 306 306 307 309 313 314 309 307 305 303 300 296 294 292 290 289 286 284 285 284 283 284 285 288 289 290 292 292 292
337 327 317 311 306 302 300 298 296 294 291 292 295 298 300 302 302 302 303 303 304 304 304 304 303 304 306 310 310 307 307 305 303 303 301 299 296 292 290 288 285 284 282 281 281 282 283 285 286 287 288 290
352 339 326 317 312 310 307 305 302 300 297 296 296 296 297 298 298 298 299 299 300 300 301 301 301 301 303 306 305 303 304 303 302 303 303 303 301 297 293 290 286 284 283 281 280 279 281 282 283 284 285 286
0 349 337 326 320 318 316 314 310 307 305 303 302 301 302 302 301 300 299 299 299 300 302 303 303 302 302 301 300 300 300 300 301 303 303 302 304 302 298 296 291 288 288 286 283 280 278 279 281 282 282 284
3 355 348 339 334 330 327 326 322 318 315 313 312 311 312 311 309 306 304 304 304 305 307 309 309 308 307 303 298 296 296 296 298 302 302 302 303 305 304 301 298 296 295 293 289 284 280 279 280 280 281 282
5 1 356 349 345 341 337 335 332 330 326 323 322 321 321 319 316 313 310 308 307 307 308 310 311 310 310 307 302 296 293 293 295 298 301 301 301 304 305 304 302 301 300 298 294 288 282 280 282 282 281 280
6 2 359 354 349 345 340 335 331 329 327 325 324 324 325 324 322 321 318 315 311 309 310 312 313 312 311 310 308 303 296 292 292 294 297 299 300 301 303 303 304 304 303 300 296 290 286 283 281 280 280 279
5 1 358 354 351 346 342 336 330 326 323 322 322 323 324 324 323 322 322 320 318 316 314 314 315 315 314 313 313 311 307 302 297 295 296 299 301 300 300 301 302 304 305 302 297 294 290 286 282 280 279 278
5 1 357 352 349 345 340 337 331 326 322 319 318 319 321 322 321 319 318 318 317 316 314 314 314 315 314 314 313 312 313 311 308 306 304 303 302 302 302 301 303 306 307 305 303 302 297 291 288 285 284 283
5 360 355 350 347 344 340 338 332 324 318 314 312 314 315 316 316 315 313 313 312 311 311 311 311 312 312 312 311 310 310 311 311 311 312 310 307 307 304 302 305 307 307 307 309 310 305 302 299 293 290 289
2 357 355 351 349 348 345 345 341 332 323 313 306 304 304 305 307 309 308 308 307 306 307 308 307 308 308 307 307 306 306 306 307 308 310 310 309 309 305 304 308 308 305 305 308 309 306 307 307 301 299 296
355 352 350 348 346 345 343 343 342 341 336 326 312 302 297 296 298 299 299 301 301 301 303 303 303 304 304 303 302 301 301 301 302 303 305 306 306 305 302 304 308 307 305 303 303 302 297 303 305 299 303 302
347 345 344 342 340 339 339 339 339 339 339 334 325 312 302 296 294 294 293 293 294 296 298 298 299 300 300 300 298 296 296 297 297 297 299 303 302 300 299 301 303 302 304 304 300 294 290 293 290 285 299 303
339 339 341 341 340 340 339 339 338 337 335 332 326 317 306 299 293 292 293 292 292 293 294 293 294 296 297 297 295 294 292 291 292 292 295 298 297 297 298 297 296 296 301 303 297 293 289 286 281 286 296 299
334 336 337 338 339 339 339 337 334 333 330 326 322 314 307 300 295 292 292 293 293 291 289 288 289 292 294 295 294 292 289 287 288 289 290 292 294 295 296 293 292 294 299 298 295 295 293 288 285 286 288 287
Height
1548 1548 1548 1548 1547 1547 1546 1546 1545 1544 1544 1543 1542 1542 1541 1541 1540 1539 1539 1538 1537 1536 1535 1534 1533 1532 1531 1530 1529 1528 1526 1525 1524 1523 1522 1522 1521 1520 1519 1518 1517 1517 1515 1514 1514 1513 1512 1510 1509 1507 1506 1506
1548 1548 1548 1547 1547 1546 1545 1545 1544 1544 1543 1542 1542 1541 1541 1540 1540 1539 1538 1537 1536 1535 1535 1534 1533 1532 1531 1530 1528 1527 1526 1525 1523 1522 1521 1520 1520 1519 1518 1517 1516 1516 1514 1513 1512 1512 1511 1510 1509 1507 1506 1505
1547 1547 1547 1547 1546 1546 1545 1544 1544 1543 1542 1542 1541 1540 1540 1539 1539 1538 1537 1536 1535 1535 1534 1533 1532 1531 1531 1529 1528 1527 1526 1524 1523 1522 1520 1519 1518 1517 1517 1516 1515 1515 1513 1512 1511 1510 1510 1509 1508 1507 1506 1504
1547 1547 1546 1546 1546 1545 1545 1544 1543 1542 1542 1541 1540 1540 1539 1539 1538 1537 1536 1535 1535 1534 1533 1532 1531 1530 1530 1529 1527 1526 1525 1523 1522 1521 1520 1518 1517 1516 1515 1514 1514 1513 1512 1511 1509 1508 1507 1507 1507 1506 1505 1504
1546 1546 1546 1545 1545 1545 1544 1543 1543 1542 1541 1540 1540 1539 1538 1538 1537 1536 1535 1534 1534 1533 1532 1531 1530 1529 1528 1528 1526 1525 1524 1523 1521 1520 1518 1517 1516 1515 1513 1513 1512 1512 1511 1510 1508 1507 1505 1505 1505 1504 1503 1502
1545 1545 1545 1545 1544 1544 1543 1543 1542 1541 1540 1540 1539 1538 1537 1536 1535 1535 1534 1533 1532 1531 1531 1530 1529 1528 1527 1526 1525 1524 1523 1522 1520 1519 1517 1516 1515 1513 1512 1511 1510 1510 1509 1508 1507 1506 1504 1503 1502 1502 1501 1500
1544 1544 1544 1544 1544 1543 1542 1542 1541 1540 1540 1539 1538 1537 1536 1535 1534 1533 1532 1531 1530 1529 1529 1528 1527 1526 1525 1524 1523 1522 1521 1520 1519 1518 1516 1515 1513 1512 1511 1509 1508 1507 1507 1506 1505 1504 1503 1502 1501 1500 1499 1498
1543 1543 1543 1543 1542 1542 1541 1541 1540 1539 1538 1537 1536 1535 1534 1533 1532 1531 1530 1529 1528 1528 1527 1526 1525 1524 1523 1522 1521 1520 1519 1519 1517 1516 1515 1513 1512 1510 1509 1508 1507 1506 1505 1504 1503 1503 1502 1500 1499 1498 1497 1496
1542 1542 1542 1542 1541 1541 1540 1539 1539 1538 1537 1536 1535 1534 1533 1532 1531 1530 1529 1528 1527 1526 1525 1524 1523 1522 1521 1520 1519 1518 1517 1516 1515 1514 1513 1512 1510 1509 1507 1506 1505 1504 1503 1502 1501 1501 1500 1499 1498 1496 1495 1494
1541 1541 1541 1540 1540 1539 1538 1538 1537 1536 1535 1535 1534 1533 1532 1530 1529 1528 1527 1526 1525 1524 1523 1522 1521 1520 1519 1518 1517 1516 1514 1514 1513 1511 1510 1509 1508 1507 1506 1505 1503 1502 1501 1500 1499 1498 1497 1497 1495 1495 1494 1493
1540 1540 1539 1539 1538 1537 1537 1536 1535 1535 1534 1533 1532 1531 1530 1529 1527 1526 1525 1524 1523 1522 1521 1520 1519 1518 1517 1516 1515 1513 1512 1511 1510 1509 1508 1507 1506 1505 1504 1503 1502 1500 1499 1498 1496 1496 1495 1494 1493 1492 1491 1491
1539 1538 1538 1537 1537 1536 1535 1535 1534 1533 1533 1532 1531 1530 1528 1527 1526 1524 1523 1522 1521 1520 1519 1518 1517 1516 1515 1513 1513 1511 1510 1508 1507 1506 1505 1504 1503 1503 1502 1501 1500 1498 1497 1496 1494 1493 1492 1492 1491 1490 1489 1488
1537 1537 1536 1536 1535 1534 1534 1533 1532 1531 1531 1530 1529 1528 1526 1525 1524 1522 1521 1520 1519 1518 1517 1516 1515 1513 1512 1511 1510 1509 1507 1506 1504 1504 1503 1502 1501 1500 1499 1498 1497 1496 1495 1494 1493 1491 1490 1489 1488 1487 1486 1486
1535 1535 1534 1534 1533 1532 1531 1530 1530 1529 1528 1528 1527 1526 1525 1523 1522 1521 1519 1518 1517 1516 1515 1514 1512 1511 1510 1509 1508 1506 1505 1504 1502 1501 1500 1499 1498 1497 1496 1495 1494 1493 1492 1492 1490 1489 1488 1487 1486 1485 1484 1483
1533 1533 1532 1531 1530 1529 1529 1528 1527 1526 1526 1525 1525 1524 1522 1521 1520 1518 1517 1516 1515 1514 1513 1511 1510 1509 1508 1507 1506 1504 1502 1501 1500 1498 1497 1496 1495 1494 1493 1492 1491 1490 1489 1489 1488 1487 1485 1484 1483 1482 1481 1480
1532 1531 1530 1529 1528 1527 1526 1525 1524 1524 1523 1523 1522 1521 1520 1519 1518 1516 1515 1514 1513 1512 1510 1509 1508 1506 1505 1504 1503 1502 1500 1499 1497 1496 1495 1494 1492 1491 1490 1489 1488 1487 1486 1485 1485 1484 1483 1482 1481 1479 1478 1478
1531 1530 1528 1527 1526 1525 1524 1523 1522 1522 1521 1520 1520 1519 1517 1516 1515 1514 1513 1512 1511 1509 1508 1506 1505 1504 1503 1502 1501 1499 1498 1496 1495 1494 1492 1491 1490 1488 1487 1486 1485 1484 1483 1482 1481 1481 1480 1479 1478 1477 1476 1475
1529 1528 1527 1526 1524 1523 1522 1521 1520 1520 1519 1518 1517 1516 1515 1514 1513 1512 1511 1509 1508 1507 1505 1504 1503 1501 1500 1499 1498 1497 1495 1494 1493 1491 1490 1489 1487 1486 1484 1483 1482 1481 1479 1479 1478 1477 1476 1475 1475 1474 1473 1472
1528 1526 1525 1524 1523 1521 1520 1519 1518 1518 1517 1516 1515 1513 1513 1512 1511 1510 1508 1507 1505 1504 1503 1501 1500 1499 1498 1497 1495 1494 1493 1491 1490 1489 1487 1486 1484 1483 1482 1480 1479 1478 1476 1475 1474 1474 1473 1472 1471 1470 1470 1469
1526 1525 1524 1522 1521 1520 1519 1518 1517 1516 1515 1514 1513 1512 1511 1510 1509 1508 1507 1505 1504 1502 1501 1499 1498 1497 1496 1494 1492 1491 1490 1489 1487 1486 1485 1484 1482 1480 1479 1477 1476 1475 1474 1472 1471 1470 1469 1469 1468 1466 1466 1466
1524 1523 1522 1521 1520 1519 1518 1517 1516 1515 1514 1513 1512 1510 1510 1509 1508 1506 1505 1504 1502 1501 1499 1498 1496 1495 1494 1492 1490 1488 1487 1486 1485 1483 1482 1481 1480 1478 1476 1475 1473 1472 1471 1469 1467 1466 1465 1465 1464 1463 1463 1462
1522 1521 1521 1520 1519 1518 1517 1515 1514 1513 1512 1511 1510 1509 1508 1507 1506 1505 1504 1502 1501 1499 1497 1496 1494 1493 1492 1489 1487 1486 1484 1483 1482 1481 1479 1477 1477 1476 1473 1472 1470 1469 1468 1466 1464 1462 1462 1462 1460 1460 1459 1459
1520 1520 1519 1518 1517 1516 1515 1514 1512 1511 1510 1509 1508 1507 1506 1505 1504 1503 1501 1500 1498 1497 1495 1494 1492 1491 1489 1487 1485 1483 1481 1480 1479 1478 1476 1474 1473 1473 1471 1469 1468 1467 1465 1462 1460 1459 1459 1458 1457 1456 1456 1455
1519 1518 1516 1515 1514 1513 1513 1512 1511 1510 1508 1507 1506 1505 1504 1502 1501 1500 1499 1497 1496 1494 1492 1491 1490 1488 1487 1485 1483 1481 1479 1478 1477 1475 1474 1472 1471 1469 1468 1467 1466 1465 1462 1459 1457 1456 1455 1454 1454 1453 1453 1452
1518 1516 1515 1513 1512 1511 1510 1509 1508 1507 1506 1505 1504 1502 1501 1500 1499 1497 1496 1495 1493 1491 1490 1488 1487 1485 1484 1483 1481 1479 1477 1476 1475 1473 1472 1470 1468 1467 1465 1464 1463 1462 1460 1456 1454 1452 1450 1449 1450 1450 1449 1449
1517 1516 1515 1513 1511 1510 1508 1507 1505 1503 1502 1501 1500 1500 1498 1497 1496 1494 1493 1492 1490 1488 1487 1485 1484 1482 1481 1480 1478 1476 1475 1474 1473 1471 1470 1468 1466 1465 1463 1461 1461 1460 1458 1455 1453 1450 1446 1443 1444 1445 1445 1445
1516 1515 1514 1512 1510 1508 1506 1504 1503 1501 1499 1498 1496 1496 1495 1494 1492 1491 1490 1488 1487 1485 1484 1482 1480 1479 1478 1477 1475 1473 1472 1471 1470 1469 1468 1466 1464 1463 1461 1459 1459 1459 1457 1454 1453 1451 1446 1443 1441 1439 1440 1441
1515 1513 1512 1510 1508 1506 1504 1502 1500 1498 1496 1495 1493 1491 1490 1489 1488 1487 1485 1484 1483 1482 1480 1479 1477 1476 1474 1473 1472 1470 1469 1468 1467 1466 1465 1464 1462 1460 1458 1457 1456 1456 1455 1454 1452 1451 1447 1446 1443 1438 1437 1437
1512 1510 1508 1506 1503 1501 1499 1497 1496 1493 1491 1490 1488 1487 1486 1485 1484 1482 1481 1480 1479 1478 1476 1475 1473 1472 1471 1470 1469 1467 1465 1464 1464 1463 1462 1461 1460 1458 1456 1454 1453 1452 1453 1452 1451 1450 1448 1446 1443 1438 1437 1435
1509 1507 1504 1501 1499 1497 1494 1493 1491 1490 1487 1485 1484 1482 1481 1480 1479 1478 1476 1475 1474 1473 1472 1470 1469 1468 1466 1465 1464 1463 1462 1460 1460 1459 1459 1458 1456 1455 1454 1452 1450 1449 1450 1449 1447 1447 1446 1444 1442 1438 1438 1436
1507 1504 1501 1499 1497 1495 1493 1490 1488 1486 1484 1482 1480 1478 1476 1475 1474 1473 1471 1470 1469 1468 1467 1465 1464 1463 1462 1460 1460 1459 1457 1456 1456 1455 1455 1454 1452 1451 1451 1449 1446 1445 1446 1445 1443 1443 1442 1440 1440 1438 1436 1436